Printer-friendly version
Follow the MPC on Twitter Follow the MPC on Facebook The MPC blog
Minor Planet Center

MPEC 2005-J14 : 2005 JB

The following Minor Planet Electronic Circular may be linked-to from your own Web pages, but must not otherwise be redistributed electronically.

A form allowing access to any MPEC is at the bottom of this page.


Read MPEC 2005-J13 Read MPEC 2005-J15


M.P.E.C. 2005-J14                                Issued 2005 May 4, 01:56 UT

     The Minor Planet Electronic Circulars contain information on unusual
         minor planets and routine data on comets.  They are published
   on behalf of Commission 20 of the International Astronomical Union by the
          Minor Planet Center, Smithsonian Astrophysical Observatory,
                          Cambridge, MA 02138, U.S.A.

                  Supported in part by the Brinson Foundation
             Prepared using the Tamkin Foundation Computer Network

                              MPC@CFA.HARVARD.EDU
          URL http://cfa-www.harvard.edu/iau/mpc.html  ISSN 1523-6714

                                    2005 JB

Observations:
     K05J00B* C2005 05 03.26641 12 33 32.46 +07 25 49.7          15.4 R EJ014703
     K05J00B  C2005 05 03.27564 12 33 36.90 +07 28 54.2          15.4 R EJ014703
     K05J00B  C2005 05 03.28473 12 33 41.27 +07 31 54.9          15.5 R EJ014703
     K05J00B  C2005 05 03.29385 12 33 45.66 +07 34 56.8          15.5 R EJ014703
     K05J00B  C2005 05 03.30051 12 33 48.86 +07 37 09.3          15.5 R EJ014703
     K05J00B  C2005 05 03.30157 12 33 49.37 +07 37 30.5          15.6 R EJ014703
     K05J00B  C2005 05 03.30244 12 33 49.80 +07 37 47.8          15.5 R EJ014703
     K05J00B  C2005 05 03.30331 12 33 50.22 +07 38 05.2          15.5 R EJ014703
     K05J00B  C2005 05 03.71368 12 37 15.17 +09 52 25.6                 EJ014355
     K05J00B  C2005 05 03.71574 12 37 16.22 +09 53 05.6          15.2 R EJ014355
     K05J00B  C2005 05 03.71787 12 37 17.20 +09 53 46.1                 EJ014355
     K05J00B  C2005 05 03.71895 12 37 17.68 +09 54 07.1                 EJ014355
     K05J00B  C2005 05 03.72274 12 37 19.68 +09 55 20.3                 EJ014355
     K05J00B  C2005 05 03.97358912 39 27.66 +11 15 22.6          15.0 R EJ014J95
     K05J00B  C2005 05 03.97667612 39 29.13 +11 16 21.2          16.0 R EJ014J95
     K05J00B  C2005 05 03.97877712 39 30.13 +11 17 01.1          14.9 R EJ014J95
     K05J00B  C2005 05 03.98317612 39 32.23 +11 18 24.4          15.4 R EJ014J95

Observer details:
703 Catalina Sky Survey.  Observer R. Hill.  Measurers E. C. Beshore,
    C. M. Casey, E. J. Christensen, G. J. Garradd, R. E. Hill, S. M. Larson,
    R. H. McNaught.  0.68-m Schmidt + CCD.
J95 Great Shefford.  Observer P. Birtwhistle.  0.30-m f/6.3 Schmidt-Cassegrain
    + CCD.
355 Hadano.  Observer A. Asami.  0.28-m f/5.0 reflector + CCD.

Orbital elements:
2005 JB
Epoch 2005 Apr. 20.0 TT = JDT 2453480.5                 MPC
M 355.80733              (2000.0)            P               Q
n   0.33737699     Peri.    0.84014     -0.78138826     +0.50250846
a   2.0435836      Node   217.93839     -0.57600326     -0.80891163
e   0.4632439      Incl.   37.00230     -0.24010961     +0.30520029
P   2.92           H   18.9           G   0.15
From 17 observations 2005 May 3-3.

Ephemeris:
2005 JB                  a,e,i = 2.04, 0.46, 37                  q = 1.0969
Date    TT    R. A. (2000) Decl.     Delta      r     Elong.  Phase     V
2005 04 30    12 04.91   -11 48.7    0.108    1.097   144.8    31.9    15.6
2005 05 10    13 24.82   +34 57.0    0.155    1.100   122.1    51.1    17.0
2005 05 20    14 20.01   +50 15.4    0.255    1.114   107.2    60.2    18.3
2005 05 30    14 56.53   +54 58.4    0.362    1.139   100.9    61.0    19.2
2005 06 09    15 22.08   +56 13.6    0.467    1.173    97.7    59.1    19.7
2005 06 19    15 41.90   +55 53.8    0.565    1.214    96.1    56.3    20.1
2005 06 29    15 58.93   +54 38.0    0.658    1.263    95.5    53.3    20.4
2005 07 09    16 14.84   +52 41.2    0.743    1.316    95.6    50.3    20.7
2005 07 19    16 30.73   +50 12.0    0.823    1.373    96.0    47.4    21.0
2005 07 29    16 47.10   +47 17.0    0.899    1.433    96.8    44.7    21.2
2005 08 08    17 04.19   +44 00.8    0.972    1.494    97.6    42.3    21.4
2005 08 18    17 22.13   +40 29.6    1.046    1.557    98.3    40.1    21.5
2005 08 28    17 40.85   +36 49.9    1.123    1.620    98.6    38.1    21.7
2005 09 07    18 00.25   +33 07.9    1.205    1.682    98.6    36.3    21.9

Timothy B. Spahr             (C) Copyright 2005 MPC           M.P.E.C. 2005-J14

Read MPEC 2005-J13 Read MPEC 2005-J15


MPEC number:

Enter an MPEC number in one of the following forms:

  • 1997-B01 (the full form)
  • J97B01 (the packed version of the full form)
  • B01 (the abbreviated form)

Valid HTML 4.01!